COSMOS 2539

Last updated on Fri Jul 10 2026 00:03:06 GMT+0000 (Coordinated Universal Time)

1 44457U 19048A 26190.78508214 .00000092 00000+0 00000+0 0 9998 2 44457 0.0329 101.1650 0000359 79.7142 41.4611 1.00266038 25450
UTC large
Height (km)
Speed (km/s)
/
Latitude / Longitude
Inclination (degrees)
Orbital Period (minutes)
Azimuth
Elevation
Range (km)
Doppler Factor

Next 0 passes for location: London (51.5072 / 0.1276)

No passes found over London.
COSMOS 2539